[[{"header":{"parameterUnit":"m.s-1","parameterCategory":1,"la1":30.2991,"la2":30.254,"lo1":-89.0895,"lo2":-89.0444,"dy":0.0017,"dx":0.0017,"nx":28,"ny":28,"refTime":"2023-09-07T03:00:00:Z","depth":0,"parameterNumber":2,"parameterNumberName":"U-component_of_WINDS"},"data":[0,0,0,0,0,0,0,0,0,0,0,0,0,0,0,0,0,0,0,0,0,0,0,0,0,0,0,0,0,0,0,0,0,0,0,0,0,0,0,0,0,0,0,0,0,0,0,0,0,0,0,0,0,0,0,0,0,0,0.2456,0.2456,0,0.2468,0.2468,0.2468,0.2444,0.2443,0.2442,0.2442,0.2458,0.2459,0.2461,0,0,0,0,0,0,0,0,0,0,0,0,0,0.2415,0.2416,0.2456,0.2456,0.2456,0.2468,0.2468,0.2468,0.2444,0.2443,0.2442,0.2441,0.2458,0.2459,0.2461,0,0,0,0,0,0,0,0,0,0,0,0,0,0.243,0.2416,0.2456,0.2445,0.2444,0.2468,0.2468,0.2468,0.2444,0.2443,0.2442,0.2441,0.2457,0.2459,0.2461,0.2496,0,0,0.2466,0.2467,0,0,0,0,0,0,0,0,0.243,0.2432,0.2447,0.2446,0.2445,0.2453,0.246,0.2478,0.2445,0.2444,0.2442,0.244,0.2458,0.2459,0.2465,0.2497,0.2498,0.2467,0.2468,0.2468,0.2469,0,0,0,0,0,0,0,0.2429,0.2431,0.2461,0.2447,0.2446,0.2441,0.2442,0.2463,0.2458,0.2444,0.2443,0.2444,0.2457,0.2463,0.2465,0.2498,0.2467,0.2468,0.2469,0.247,0.256,0.2562,0,0,0,0,0,0,0.2428,0.2431,0.246,0.2461,0.2434,0.2443,0.2444,0.2452,0.2458,0.2457,0.2445,0.2443,0.246,0.2463,0.2465,0.2507,0.2468,0.247,0.2471,0.2559,0.2561,0.2562,0,0,0,0,0,0,0.2427,0.2431,0.246,0.2445,0.2448,0.2445,0.2454,0.2453,0.2458,0.2458,0.2457,0.2452,0.246,0.2463,0.2488,0.2508,0.2471,0.2473,0.2557,0.2559,0.2561,0.2592,0,0,0,0,0,0,0.2426,0.2431,0.2444,0.2446,0.2449,0.2482,0.2455,0.2454,0.2461,0.2458,0.2464,0.2464,0.2459,0.2486,0.249,0.251,0.2474,0.2556,0.2558,0.2561,0.2589,0.2595,0.2599,0,0,0,0,0,0.2425,0.2453,0.2444,0.2448,0.2465,0.2483,0.2485,0.2478,0.2463,0.2476,0.2476,0.2464,0.2504,0.2489,0.2493,0.2514,0.2554,0.2558,0.256,0.2587,0.2594,0.2599,0,0,0,0,0,0,0.2455,0.2453,0.2444,0.2473,0.2478,0.2479,0.2496,0.2485,0.2496,0.2493,0.2484,0.2486,0.2513,0.2516,0.2498,0.2548,0.2527,0.2531,0.2546,0.2552,0.2557,0.2557,0.2475,0,0,0,0,0,0.2465,0.2478,0.2476,0.2502,0.2505,0.25,0.2507,0.25,0.2506,0.2509,0.2511,0.2518,0.2532,0.2542,0.2555,0.2589,0.259,0.2605,0.261,0.2614,0.2619,0.2637,0.2644,0.2572,0.2572,0.2572,0,0,0.2486,0.2486,0.2496,0.2508,0.2511,0.2527,0.2502,0.2519,0.2531,0.2512,0.2536,0.2538,0.2545,0.2575,0.2588,0.2578,0.2638,0.2618,0.2621,0.2623,0.2641,0.2648,0.2654,0.2574,0.2573,0.2573,0,0,0.2532,0.2533,0.2555,0.2558,0.2562,0.2559,0.2564,0.2566,0.2566,0.2589,0.2575,0.2589,0.2614,0.262,0.2626,0.2673,0.2663,0.2678,0.2705,0.2723,0.2729,0.2734,0.2752,0.2758,0.2681,0.2681,0.2681,0,0.2558,0.2579,0.2568,0.2586,0.2592,0.2573,0.2596,0.26,0.2609,0.2615,0.2602,0.2633,0.2636,0.2668,0.2679,0.2684,0.2691,0.2678,0.2729,0.2734,0.2738,0.2755,0.2762,0.2683,0.2683,0.2683,0.2683,0,0.2611,0.2626,0.2643,0.2651,0.2659,0.2679,0.2672,0.2682,0.2674,0.2671,0.2696,0.2699,0.2713,0.2719,0.2713,0.275,0.2743,0.273,0.2709,0.2747,0.2763,0.2769,0.2686,0.2685,0.2685,0.2684,0,0,0.2679,0.2678,0.2685,0.2688,0.2691,0.2703,0.2723,0.2734,0.2743,0.275,0.2767,0.2788,0.2775,0.2782,0.2775,0.2791,0.2829,0.2776,0.2776,0.2787,0.2871,0.2883,0.289,0.2821,0.2823,0.2823,0.2871,0,0.2725,0.2758,0.2747,0.2781,0.2795,0.2776,0.2793,0.2798,0.2796,0.2808,0.2806,0.2822,0.2803,0.2807,0.2822,0.2821,0.2846,0.2818,0.2839,0.284,0.2839,0.2898,0.2911,0.2956,0.2877,0.2878,0.2879,0,0.2785,0.2792,0.2826,0.2826,0.2832,0.2847,0.2857,0.2869,0.2873,0.2871,0.2878,0.2868,0.2888,0.2865,0.2893,0.2874,0.2882,0.2883,0.2885,0.2888,0.2863,0.2905,0.297,0.2977,0.2888,0.2888,0.2887,0,0.2832,0.285,0.2873,0.2876,0.2877,0.2888,0.2889,0.2892,0.29,0.2908,0.2913,0.2925,0.2931,0.2941,0.2934,0.2918,0.2964,0.2941,0.2964,0.2965,0.2977,0.2976,0.3045,0.2979,0.2979,0.2979,0.2978,0,0.2886,0.2909,0.2895,0.2909,0.2933,0.2921,0.2946,0.2945,0.2947,0.2962,0.2946,0.2961,0.2951,0.2964,0.2959,0.2984,0.2987,0.2987,0.2986,0.2989,0.2989,0.2996,0.2993,0.298,0.298,0.298,0.2979,0,0.2945,0.2936,0.296,0.2957,0.2957,0.2975,0.2974,0.2988,0.2983,0.3002,0.3006,0.3,0.3015,0.3009,0.3026,0.3022,0.3055,0.3048,0.3053,0.3052,0.3076,0.3075,0.3153,0.3163,0.3089,0.3089,0.309,0,0.2981,0.2997,0.2996,0.3004,0.3005,0.3018,0.3025,0.3013,0.3021,0.3027,0.304,0.3054,0.3064,0.3089,0.3088,0.31,0.3096,0.3122,0.3098,0.3101,0.3098,0.3098,0.31,0.3128,0.3129,0.3129,0.313,0,0.3047,0.3041,0.3051,0.3059,0.3068,0.3074,0.3079,0.3087,0.3075,0.3085,0.31,0.3107,0.3123,0.3137,0.3148,0.315,0.3139,0.3137,0.3143,0.3148,0.3151,0.3151,0.3068,0.3136,0.3135,0.3135,0.3135,0.3134,0.3096,0.311,0.311,0.3122,0.3124,0.3129,0.3142,0.3138,0.3149,0.3161,0.3153,0.317,0.3174,0.3187,0.3191,0.3205,0.3195,0.3204,0.3206,0.3209,0.3213,0.3147,0.3207,0.3206,0.3206,0.3206,0.3206,0,0.3162,0.3161,0.3172,0.3178,0.3188,0.3173,0.3178,0.3187,0.3202,0.3205,0.3215,0.3232,0.3245,0.3244,0.3256,0.3268,0.3263,0.3271,0.3272,0.3272,0.3221,0.3214,0.3275,0.3275,0.3275,0.3275,0.3275,0.3275,0.3198,0.322,0.3215,0.3238,0.3237,0.3253,0.3257,0.3261,0.3264,0.3283,0.3293,0.3291,0.3293,0.3305,0.3317,0.3316,0.3322,0.3333,0.3331,0.3283,0.3276,0.327,0.3264,0.3334,0.3334,0.3382,0.3382,0.3382]},{"header":{"parameterUnit":"m.s-1","parameterCategory":1,"la1":30.2991,"la2":30.254,"lo1":-89.0895,"lo2":-89.0444,"dy":0.0017,"dx":0.0017,"nx":28,"ny":28,"refTime":"2023-09-07T03:00:00:Z","depth":0,"parameterNumber":3,"parameterNumberName":"V-component_of_WINDS"},"data":[0,0,0,0,0,0,0,0,0,0,0,0,0,0,0,0,0,0,0,0,0,0,0,0,0,0,0,0,0,0,0,0,0,0,0,0,0,0,0,0,0,0,0,0,0,0,0,0,0,0,0,0,0,0,0,0,0,0,-2.1453,-2.1452,0,-2.1433,-2.1433,-2.1433,-2.1431,-2.1431,-2.1432,-2.1432,-2.1408,-2.1407,-2.1406,0,0,0,0,0,0,0,0,0,0,0,0,0,-2.1486,-2.1486,-2.1453,-2.1452,-2.1452,-2.1433,-2.1433,-2.1433,-2.1431,-2.1431,-2.1432,-2.1432,-2.1408,-2.1407,-2.1406,0,0,0,0,0,0,0,0,0,0,0,0,0,-2.147,-2.1485,-2.1453,-2.1449,-2.1449,-2.1433,-2.1433,-2.1433,-2.1431,-2.1431,-2.1432,-2.1432,-2.1408,-2.1407,-2.1406,-2.1391,0,0,-2.1402,-2.1401,0,0,0,0,0,0,0,0,-2.147,-2.1468,-2.145,-2.1449,-2.1449,-2.1435,-2.1436,-2.1419,-2.1431,-2.1438,-2.1432,-2.1432,-2.1416,-2.1414,-2.141,-2.139,-2.1389,-2.1402,-2.1401,-2.1401,-2.14,0,0,0,0,0,0,0,-2.1472,-2.1469,-2.1445,-2.145,-2.1449,-2.1448,-2.1446,-2.1433,-2.1425,-2.1437,-2.1437,-2.1435,-2.1416,-2.1411,-2.1409,-2.1389,-2.1402,-2.1401,-2.14,-2.14,-2.1359,-2.1358,0,0,0,0,0,0,-2.1474,-2.147,-2.1445,-2.1444,-2.1461,-2.1447,-2.1445,-2.1439,-2.1425,-2.1424,-2.1435,-2.1435,-2.1413,-2.1411,-2.1408,-2.1392,-2.1401,-2.1399,-2.1399,-2.1359,-2.1359,-2.1358,0,0,0,0,0,0,-2.1475,-2.1472,-2.1446,-2.1457,-2.1454,-2.1446,-2.144,-2.1438,-2.1434,-2.1424,-2.1422,-2.1431,-2.1413,-2.141,-2.1396,-2.1391,-2.1399,-2.1398,-2.1359,-2.1359,-2.1358,-2.1358,0,0,0,0,0,0,-2.1476,-2.1472,-2.1467,-2.1457,-2.1453,-2.1435,-2.1439,-2.1438,-2.1432,-2.1432,-2.142,-2.1418,-2.1413,-2.1398,-2.1395,-2.1389,-2.1397,-2.136,-2.1359,-2.1359,-2.1358,-2.1357,-2.1357,0,0,0,0,0,-2.1477,-2.1466,-2.1466,-2.1464,-2.1447,-2.1435,-2.1433,-2.1428,-2.1431,-2.1426,-2.142,-2.1418,-2.1392,-2.1397,-2.1393,-2.1387,-2.136,-2.1359,-2.1359,-2.1359,-2.1358,-2.1357,0,0,0,0,0,0,-2.1473,-2.1465,-2.1465,-2.1451,-2.1444,-2.1435,-2.1427,-2.1427,-2.1418,-2.1418,-2.1412,-2.141,-2.1396,-2.139,-2.1396,-2.1373,-2.1376,-2.1375,-2.1378,-2.1377,-2.1376,-2.1377,-2.1396,0,0,0,0,0,-2.1471,-2.1463,-2.1456,-2.1444,-2.1441,-2.1435,-2.1429,-2.1427,-2.1419,-2.1415,-2.1408,-2.1399,-2.139,-2.1383,-2.1373,-2.1358,-2.1356,-2.1352,-2.1351,-2.1351,-2.1349,-2.1342,-2.1341,-2.1356,-2.1356,-2.1356,0,0,-2.1466,-2.146,-2.1455,-2.1443,-2.1437,-2.1429,-2.1432,-2.1422,-2.1416,-2.1413,-2.1401,-2.1395,-2.1385,-2.1371,-2.1365,-2.1366,-2.1345,-2.135,-2.1349,-2.1348,-2.1341,-2.134,-2.1339,-2.1355,-2.1355,-2.1356,0,0,-2.1452,-2.1447,-2.1438,-2.1433,-2.1425,-2.1421,-2.1419,-2.1411,-2.1408,-2.1395,-2.1394,-2.1386,-2.1368,-2.1362,-2.1356,-2.1343,-2.1342,-2.134,-2.1335,-2.1328,-2.1327,-2.1326,-2.1322,-2.1321,-2.1339,-2.1339,-2.1339,0,-2.1446,-2.1434,-2.1432,-2.1424,-2.1419,-2.1419,-2.1409,-2.1404,-2.1392,-2.1389,-2.1391,-2.1371,-2.1363,-2.1349,-2.1346,-2.1341,-2.1339,-2.1341,-2.1328,-2.1327,-2.1326,-2.1322,-2.132,-2.1338,-2.1338,-2.1338,-2.1338,0,-2.1428,-2.142,-2.1413,-2.1405,-2.1399,-2.1389,-2.1386,-2.138,-2.1379,-2.1376,-2.1364,-2.1356,-2.1345,-2.1342,-2.1339,-2.1327,-2.1328,-2.1329,-2.1332,-2.1324,-2.132,-2.1319,-2.1338,-2.1338,-2.1338,-2.1338,0,0,-2.1409,-2.1402,-2.14,-2.1397,-2.1389,-2.1382,-2.1374,-2.1365,-2.1361,-2.1353,-2.1346,-2.1333,-2.1334,-2.1328,-2.1325,-2.1319,-2.1311,-2.1321,-2.1321,-2.132,-2.1298,-2.1297,-2.1296,-2.1311,-2.131,-2.131,-2.1299,0,-2.1395,-2.1381,-2.138,-2.1367,-2.136,-2.1361,-2.1353,-2.1348,-2.1345,-2.1338,-2.1334,-2.1325,-2.1327,-2.1324,-2.1318,-2.1313,-2.1306,-2.1314,-2.1303,-2.1303,-2.1305,-2.1294,-2.1292,-2.1282,-2.1297,-2.1297,-2.1297,0,-2.1376,-2.1371,-2.1358,-2.1353,-2.135,-2.1343,-2.1337,-2.133,-2.1324,-2.1322,-2.1317,-2.1316,-2.1307,-2.1311,-2.1298,-2.1304,-2.1299,-2.1297,-2.1296,-2.1294,-2.1299,-2.1292,-2.1279,-2.1277,-2.1295,-2.1295,-2.1295,0,-2.1365,-2.1354,-2.1345,-2.1343,-2.1337,-2.1333,-2.133,-2.1324,-2.132,-2.1314,-2.1311,-2.1303,-2.1299,-2.1293,-2.129,-2.1293,-2.1278,-2.1281,-2.1276,-2.1276,-2.1272,-2.1272,-2.1258,-2.1269,-2.1269,-2.1269,-2.1269,0,-2.1349,-2.1341,-2.1341,-2.1335,-2.1326,-2.1326,-2.1317,-2.1314,-2.131,-2.1303,-2.1304,-2.1297,-2.1294,-2.1287,-2.1285,-2.1276,-2.1273,-2.1272,-2.1271,-2.1272,-2.1272,-2.1268,-2.1269,-2.1269,-2.1269,-2.1269,-2.1269,0,-2.1334,-2.1334,-2.1324,-2.1321,-2.132,-2.1314,-2.131,-2.1305,-2.1303,-2.1295,-2.1294,-2.129,-2.1283,-2.128,-2.127,-2.1268,-2.1258,-2.1257,-2.126,-2.126,-2.1255,-2.1255,-2.1238,-2.1236,-2.1248,-2.1248,-2.1248,0,-2.1324,-2.1318,-2.1315,-2.1312,-2.131,-2.1304,-2.13,-2.13,-2.1296,-2.129,-2.1286,-2.1279,-2.1273,-2.1261,-2.1258,-2.1251,-2.125,-2.1245,-2.1249,-2.125,-2.1251,-2.1251,-2.1251,-2.1243,-2.1243,-2.1243,-2.1243,0,-2.1306,-2.1307,-2.1302,-2.1298,-2.1294,-2.1291,-2.1287,-2.1284,-2.1283,-2.1279,-2.1272,-2.1268,-2.126,-2.1253,-2.1246,-2.1243,-2.1243,-2.1242,-2.1241,-2.1241,-2.1243,-2.1242,-2.1258,-2.1242,-2.1242,-2.1242,-2.1242,-2.1243,-2.1293,-2.1289,-2.1287,-2.1282,-2.128,-2.1277,-2.1273,-2.1272,-2.1267,-2.1261,-2.1261,-2.1254,-2.125,-2.1241,-2.1238,-2.1232,-2.1233,-2.1231,-2.123,-2.123,-2.123,-2.1245,-2.1231,-2.1231,-2.1231,-2.1231,-2.1231,0,-2.1276,-2.1276,-2.1271,-2.1268,-2.1264,-2.1267,-2.1263,-2.126,-2.1255,-2.1251,-2.1247,-2.124,-2.1234,-2.1231,-2.1225,-2.1221,-2.1221,-2.122,-2.122,-2.1219,-2.1229,-2.1231,-2.122,-2.122,-2.122,-2.122,-2.122,-2.122,-2.1267,-2.126,-2.1261,-2.1253,-2.1252,-2.1247,-2.1245,-2.1242,-2.124,-2.1233,-2.1229,-2.1228,-2.1225,-2.1219,-2.1214,-2.1213,-2.1211,-2.121,-2.1209,-2.1217,-2.1218,-2.1219,-2.1222,-2.1209,-2.1209,-2.12,-2.12,-2.12]}]]